QPF
0.00 0.00 0.00 0.00 0.00 0.00 0.00 0.00 0.00 0.00 0.00 0.00 0.00 0.00 0.00 0.00 0.00 0.00 0.00 0.00 0.00 0.00 0.00 0.00 0.00 0.00 0.00 0.00 0.00 0.00 0.00 0.00 0.00 0.00 0.00 0.00 0.00 0.00 0.00 0.00 0.00 0.00 0.00 0.00
0.00 0.00 0.00 0.00 0.00 0.00 0.00 0.00 0.00 0.00 0.00 0.00 0.00 0.00 0.00 0.00 0.00 0.00 0.00 0.00 0.00 0.00 0.00 0.00 0.00 0.00 0.00 0.00 0.00 0.00 0.00 0.00 0.00 0.00 0.00 0.00 0.00 0.00 0.00 0.00 0.00 0.00 0.00 0.00
0.00 0.00 0.00 0.00 0.00 0.00 0.00 0.00 0.00 0.00 0.00 0.00 0.00 0.00 0.00 0.00 0.00 0.00 0.00 0.00 0.00 0.00 0.00 0.00 0.00 0.00 0.00 0.00 0.00 0.00 0.00 0.00 0.00 0.00 0.00 0.00 0.00 0.00 0.00 0.00 0.00 0.00 0.00 0.00
0.00 0.00 0.00 0.00 0.00 0.00 0.00 0.00 0.00 0.00 0.00 0.00 0.00 0.00 0.00 0.00 0.00 0.00 0.00 0.00 0.00 0.00 0.00 0.00 0.00 0.00 0.00 0.00 0.00 0.00 0.00 0.00 0.00 0.00 0.00 0.00 0.00 0.00 0.00 0.00 0.00 0.00 0.00 0.00
0.00 0.00 0.00 0.00 0.00 0.00 0.00 0.00 0.00 0.00 0.00 0.00 0.00 0.00 0.00 0.00 0.00 0.00 0.00 0.00 0.00 0.00 0.00 0.00 0.00 0.00 0.00 0.00 0.00 0.00 0.00 0.00 0.00 0.00 0.00 0.00 0.00 0.00 0.00 0.00 0.00 0.00 0.00 0.00
0.00 0.00 0.00 0.00 0.00 0.00 0.00 0.00 0.00 0.00 0.00 0.00 0.00 0.00 0.00 0.00 0.00 0.00 0.00 0.00 0.00 0.00 0.00 0.00 0.00 0.00 0.00 0.00 0.00 0.00 0.00 0.00 0.00 0.00 0.00 0.00 0.00 0.00 0.00 0.00 0.00 0.00 0.00 0.00
0.00 0.00 0.00 0.00 0.00 0.00 0.00 0.00 0.00 0.00 0.00 0.00 0.00 0.00 0.00 0.00 0.00 0.00 0.00 0.00 0.00 0.00 0.00 0.00 0.00 0.00 0.00 0.00 0.00 0.00 0.00 0.00 0.00 0.00 0.00 0.00 0.00 0.00 0.00 0.00 0.00 0.00 0.00 0.00
0.00 0.00 0.00 0.00 0.00 0.00 0.00 0.00 0.00 0.00 0.00 0.00 0.00 0.00 0.00 0.00 0.00 0.00 0.00 0.00 0.00 0.00 0.00 0.00 0.00 0.00 0.00 0.00 0.00 0.00 0.00 0.00 0.00 0.00 0.00 0.00 0.00 0.00 0.00 0.00 0.00 0.00 0.00 0.00
0.00 0.00 0.00 0.00 0.00 0.00 0.00 0.00 0.00 0.00 0.00 0.00 0.00 0.00 0.00 0.00 0.00 0.00 0.00 0.00 0.00 0.00 0.00 0.00 0.00 0.00 0.00 0.00 0.00 0.00 0.00 0.00 0.00 0.00 0.00 0.00 0.00 0.00 0.00 0.00 0.00 0.00 0.00 0.00
0.00 0.00 0.00 0.00 0.00 0.00 0.00 0.00 0.00 0.00 0.00 0.00 0.00 0.00 0.00 0.00 0.00 0.00 0.00 0.00 0.00 0.00 0.00 0.00 0.00 0.00 0.00 0.00 0.00 0.00 0.00 0.00 0.00 0.00 0.00 0.00 0.00 0.00 0.00 0.00 0.00 0.00 0.00 0.00
0.00 0.00 0.00 0.00 0.00 0.00 0.00 0.00 0.00 0.00 0.00 0.00 0.00 0.00 0.00 0.00 0.00 0.00 0.00 0.00 0.00 0.00 0.00 0.00 0.00 0.00 0.00 0.00 0.00 0.00 0.00 0.00 0.00 0.00 0.00 0.00 0.00 0.00 0.00 0.00 0.00 0.00 0.00 0.01
0.00 0.00 0.00 0.00 0.00 0.00 0.00 0.00 0.00 0.00 0.00 0.00 0.00 0.00 0.00 0.00 0.00 0.00 0.00 0.00 0.00 0.00 0.00 0.00 0.00 0.00 0.00 0.00 0.00 0.00 0.00 0.00 0.00 0.00 0.00 0.00 0.00 0.00 0.00 0.00 0.00 0.00 0.00 0.00
0.00 0.00 0.00 0.00 0.00 0.00 0.00 0.00 0.00 0.00 0.00 0.00 0.00 0.00 0.00 0.00 0.00 0.00 0.00 0.00 0.00 0.00 0.00 0.00 0.00 0.00 0.00 0.00 0.00 0.00 0.00 0.00 0.00 0.00 0.00 0.00 0.00 0.00 0.00 0.00 0.00 0.00 0.00 0.00
0.00 0.00 0.00 0.00 0.00 0.00 0.00 0.00 0.00 0.00 0.00 0.00 0.00 0.00 0.00 0.00 0.00 0.00 0.00 0.00 0.00 0.00 0.00 0.00 0.00 0.00 0.00 0.00 0.00 0.00 0.00 0.00 0.00 0.00 0.00 0.00 0.00 0.00 0.00 0.00 0.00 0.00 0.00 0.00
0.00 0.00 0.00 0.00 0.00 0.00 0.00 0.00 0.00 0.00 0.00 0.00 0.00 0.00 0.00 0.00 0.00 0.00 0.00 0.00 0.00 0.00 0.00 0.00 0.00 0.00 0.00 0.00 0.00 0.00 0.00 0.00 0.00 0.00 0.00 0.00 0.00 0.00 0.00 0.00 0.00 0.00 0.00 0.00
0.00 0.00 0.00 0.00 0.00 0.00 0.00 0.00 0.00 0.00 0.00 0.00 0.00 0.00 0.00 0.00 0.00 0.00 0.00 0.00 0.00 0.00 0.00 0.00 0.00 0.00 0.00 0.00 0.00 0.00 0.00 0.00 0.00 0.00 0.00 0.00 0.00 0.00 0.00 0.00 0.00 0.00 0.00 0.00
0.00 0.00 0.00 0.00 0.00 0.00 0.00 0.00 0.00 0.00 0.00 0.00 0.00 0.00 0.00 0.00 0.00 0.00 0.00 0.00 0.00 0.00 0.00 0.00 0.00 0.00 0.00 0.00 0.00 0.00 0.00 0.00 0.00 0.00 0.00 0.00 0.00 0.00 0.00 0.00 0.00 0.00 0.00 0.00
0.00 0.00 0.00 0.00 0.00 0.00 0.00 0.00 0.00 0.00 0.00 0.00 0.00 0.00 0.00 0.00 0.00 0.00 0.00 0.00 0.00 0.00 0.00 0.00 0.00 0.00 0.00 0.00 0.00 0.00 0.00 0.00 0.00 0.00 0.00 0.00 0.00 0.00 0.00 0.00 0.00 0.00 0.00 0.00
0.00 0.00 0.00 0.00 0.00 0.00 0.00 0.00 0.00 0.00 0.00 0.00 0.00 0.00 0.00 0.00 0.00 0.00 0.00 0.00 0.00 0.00 0.00 0.00 0.00 0.00 0.00 0.00 0.00 0.00 0.00 0.00 0.00 0.00 0.00 0.00 0.00 0.00 0.00 0.00 0.00 0.00 0.00 0.00
0.00 0.00 0.00 0.00 0.00 0.00 0.00 0.00 0.00 0.00 0.00 0.00 0.00 0.00 0.00 0.00 0.00 0.00 0.00 0.00 0.00 0.00 0.00 0.00 0.00 0.00 0.00 0.00 0.00 0.00 0.00 0.00 0.00 0.00 0.00 0.00 0.00 0.00 0.00 0.00 0.00 0.00 0.00 0.00
0.00 0.00 0.00 0.00 0.00 0.00 0.00 0.00 0.00 0.00 0.00 0.00 0.00 0.00 0.00 0.00 0.00 0.00 0.00 0.00 0.00 0.00 0.00 0.00 0.00 0.00 0.00 0.00 0.00 0.00 0.00 0.00 0.00 0.00 0.00 0.00 0.00 0.00 0.00 0.00 0.00 0.00 0.00 0.00
0.00 0.00 0.00 0.00 0.00 0.00 0.00 0.00 0.00 0.00 0.00 0.00 0.00 0.00 0.00 0.00 0.00 0.00 0.00 0.00 0.00 0.00 0.00 0.00 0.00 0.00 0.00 0.00 0.00 0.00 0.00 0.00 0.00 0.00 0.00 0.00 0.00 0.00 0.00 0.00 0.00 0.00 0.00 0.00
0.00 0.00 0.00 0.00 0.00 0.00 0.00 0.00 0.00 0.00 0.00 0.00 0.00 0.00 0.00 0.00 0.00 0.00 0.00 0.00 0.00 0.00 0.00 0.00 0.00 0.00 0.00 0.00 0.00 0.00 0.00 0.00 0.00 0.00 0.00 0.00 0.00 0.00 0.00 0.00 0.00 0.00 0.00 0.00
0.00 0.00 0.00 0.00 0.00 0.00 0.00 0.00 0.00 0.00 0.00 0.00 0.00 0.00 0.00 0.00 0.00 0.00 0.00 0.00 0.00 0.00 0.00 0.00 0.00 0.00 0.00 0.00 0.00 0.00 0.00 0.00 0.00 0.00 0.00 0.00 0.00 0.00 0.00 0.00 0.00 0.00 0.00 0.00
0.00 0.00 0.00 0.00 0.00 0.00 0.00 0.00 0.00 0.00 0.00 0.00 0.00 0.00 0.00 0.00 0.00 0.00 0.00 0.00 0.00 0.00 0.00 0.00 0.00 0.00 0.00 0.00 0.00 0.00 0.00 0.00 0.00 0.00 0.00 0.00 0.00 0.00 0.00 0.00 0.00 0.00 0.00 0.00
0.00 0.00 0.01 0.01 0.01 0.01 0.01 0.01 0.01 0.01 0.01 0.00 0.00 0.00 0.00 0.00 0.00 0.00 0.00 0.00 0.00 0.00 0.00 0.00 0.00 0.00 0.00 0.00 0.00 0.00 0.00 0.00 0.00 0.00 0.00 0.00 0.00 0.00 0.00 0.00 0.00 0.00 0.00 0.00
0.01 0.01 0.01 0.01 0.01 0.01 0.01 0.01 0.01 0.01 0.01 0.01 0.01 0.01 0.00 0.00 0.00 0.00 0.00 0.00 0.00 0.00 0.00 0.00 0.00 0.00 0.00 0.00 0.00 0.00 0.00 0.00 0.00 0.00 0.00 0.00 0.00 0.00 0.00 0.00 0.00 0.00 0.00 0.00
MSLP
1021.40 1021.14 1020.87 1020.60 1020.31 1019.98 1019.59 1019.10 1018.50 1017.79 1017.00 1016.18 1015.40 1014.76 1014.33 1014.18 1014.35 1014.85 1015.64 1016.67 1017.87 1019.12 1020.36 1021.51 1022.52 1023.37 1024.06 1024.62 1025.06 1025.42 1025.73 1026.00 1026.23 1026.41 1026.52 1026.55 1026.49 1026.33 1026.08 1025.75 1025.38 1024.98 1024.58 1024.19
1021.45 1021.05 1020.60 1020.12 1019.62 1019.09 1018.54 1017.95 1017.32 1016.64 1015.94 1015.24 1014.61 1014.10 1013.76 1013.66 1013.83 1014.27 1014.97 1015.90 1016.99 1018.18 1019.38 1020.53 1021.60 1022.54 1023.34 1024.00 1024.54 1024.98 1025.33 1025.61 1025.82 1025.96 1026.03 1026.02 1025.93 1025.75 1025.50 1025.18 1024.81 1024.41 1024.00 1023.59
1021.48 1020.95 1020.32 1019.63 1018.91 1018.19 1017.48 1016.79 1016.11 1015.46 1014.84 1014.27 1013.78 1013.39 1013.17 1013.12 1013.30 1013.70 1014.33 1015.16 1016.15 1017.26 1018.43 1019.59 1020.69 1021.71 1022.61 1023.37 1024.00 1024.51 1024.90 1025.18 1025.38 1025.49 1025.52 1025.48 1025.37 1025.19 1024.94 1024.64 1024.29 1023.90 1023.49 1023.06
1021.44 1020.79 1020.00 1019.13 1018.22 1017.32 1016.46 1015.67 1014.95 1014.33 1013.78 1013.32 1012.97 1012.72 1012.59 1012.62 1012.82 1013.20 1013.76 1014.51 1015.43 1016.47 1017.58 1018.73 1019.86 1020.93 1021.90 1022.74 1023.44 1024.00 1024.41 1024.71 1024.89 1024.98 1024.99 1024.93 1024.81 1024.64 1024.43 1024.16 1023.84 1023.47 1023.06 1022.61
1021.25 1020.50 1019.59 1018.58 1017.52 1016.47 1015.50 1014.63 1013.89 1013.28 1012.81 1012.46 1012.23 1012.10 1012.09 1012.19 1012.42 1012.80 1013.32 1014.01 1014.85 1015.82 1016.88 1018.00 1019.13 1020.22 1021.23 1022.11 1022.85 1023.43 1023.86 1024.15 1024.32 1024.40 1024.40 1024.34 1024.24 1024.10 1023.92 1023.70 1023.42 1023.09 1022.69 1022.22
1020.80 1019.99 1019.01 1017.91 1016.75 1015.63 1014.58 1013.67 1012.93 1012.35 1011.95 1011.69 1011.57 1011.56 1011.65 1011.83 1012.11 1012.50 1013.00 1013.65 1014.42 1015.32 1016.33 1017.40 1018.49 1019.57 1020.57 1021.46 1022.20 1022.79 1023.22 1023.50 1023.67 1023.74 1023.74 1023.69 1023.62 1023.52 1023.40 1023.23 1023.01 1022.72 1022.34 1021.88
1020.02 1019.19 1018.18 1017.05 1015.87 1014.72 1013.66 1012.75 1012.02 1011.49 1011.15 1010.99 1010.97 1011.06 1011.25 1011.51 1011.84 1012.25 1012.75 1013.36 1014.09 1014.93 1015.86 1016.87 1017.91 1018.93 1019.90 1020.75 1021.48 1022.05 1022.47 1022.75 1022.91 1022.98 1023.00 1022.98 1022.95 1022.90 1022.83 1022.73 1022.56 1022.32 1021.98 1021.53
1018.85 1018.04 1017.05 1015.95 1014.81 1013.69 1012.67 1011.80 1011.12 1010.65 1010.38 1010.29 1010.36 1010.54 1010.81 1011.14 1011.53 1011.98 1012.49 1013.08 1013.77 1014.55 1015.42 1016.35 1017.31 1018.27 1019.17 1019.98 1020.67 1021.21 1021.62 1021.90 1022.06 1022.15 1022.20 1022.21 1022.22 1022.22 1022.21 1022.16 1022.05 1021.86 1021.56 1021.14
1017.31 1016.53 1015.61 1014.59 1013.54 1012.50 1011.56 1010.77 1010.16 1009.76 1009.55 1009.53 1009.67 1009.93 1010.26 1010.66 1011.10 1011.59 1012.11 1012.70 1013.36 1014.09 1014.90 1015.75 1016.63 1017.51 1018.35 1019.11 1019.75 1020.28 1020.68 1020.97 1021.16 1021.28 1021.36 1021.42 1021.47 1021.52 1021.55 1021.54 1021.47 1021.33 1021.07 1020.70
1015.45 1014.73 1013.91 1013.00 1012.06 1011.15 1010.32 1009.62 1009.09 1008.76 1008.62 1008.65 1008.84 1009.15 1009.54 1009.99 1010.48 1011.00 1011.55 1012.15 1012.79 1013.48 1014.23 1015.02 1015.83 1016.64 1017.42 1018.13 1018.75 1019.28 1019.69 1020.01 1020.24 1020.42 1020.54 1020.65 1020.74 1020.81 1020.87 1020.89 1020.86 1020.74 1020.52 1020.20
1013.41 1012.76 1012.03 1011.24 1010.44 1009.66 1008.95 1008.36 1007.92 1007.64 1007.55 1007.63 1007.85 1008.19 1008.62 1009.11 1009.64 1010.19 1010.77 1011.37 1012.00 1012.67 1013.38 1014.12 1014.88 1015.64 1016.37 1017.06 1017.69 1018.23 1018.69 1019.06 1019.36 1019.60 1019.79 1019.94 1020.07 1020.17 1020.23 1020.26 1020.23 1020.13 1019.94 1019.67
1011.36 1010.76 1010.13 1009.47 1008.80 1008.15 1007.55 1007.06 1006.68 1006.46 1006.40 1006.49 1006.73 1007.08 1007.53 1008.04 1008.59 1009.17 1009.76 1010.38 1011.01 1011.66 1012.35 1013.05 1013.78 1014.51 1015.23 1015.93 1016.58 1017.18 1017.71 1018.16 1018.55 1018.87 1019.12 1019.33 1019.49 1019.60 1019.67 1019.68 1019.64 1019.54 1019.37 1019.13
1009.47 1008.93 1008.38 1007.83 1007.27 1006.74 1006.24 1005.82 1005.50 1005.30 1005.25 1005.34 1005.56 1005.91 1006.35 1006.86 1007.42 1008.01 1008.61 1009.23 1009.86 1010.51 1011.17 1011.86 1012.57 1013.30 1014.04 1014.77 1015.47 1016.15 1016.77 1017.32 1017.81 1018.23 1018.56 1018.82 1019.01 1019.13 1019.18 1019.18 1019.11 1019.00 1018.83 1018.62
1007.89 1007.40 1006.94 1006.47 1006.01 1005.56 1005.13 1004.76 1004.47 1004.28 1004.21 1004.27 1004.47 1004.78 1005.19 1005.68 1006.23 1006.81 1007.40 1008.02 1008.64 1009.27 1009.93 1010.61 1011.32 1012.06 1012.83 1013.60 1014.38 1015.15 1015.87 1016.54 1017.14 1017.65 1018.06 1018.38 1018.60 1018.72 1018.77 1018.74 1018.65 1018.51 1018.35 1018.16
1006.74 1006.30 1005.90 1005.51 1005.12 1004.72 1004.34 1003.99 1003.70 1003.49 1003.39 1003.40 1003.54 1003.80 1004.16 1004.61 1005.12 1005.66 1006.24 1006.83 1007.43 1008.05 1008.69 1009.36 1010.08 1010.83 1011.63 1012.47 1013.32 1014.17 1015.00 1015.78 1016.48 1017.09 1017.58 1017.95 1018.20 1018.34 1018.37 1018.33 1018.23 1018.08 1017.92 1017.75
1006.04 1005.66 1005.32 1004.99 1004.65 1004.29 1003.92 1003.57 1003.25 1003.00 1002.84 1002.79 1002.86 1003.05 1003.34 1003.72 1004.16 1004.66 1005.18 1005.73 1006.30 1006.89 1007.51 1008.17 1008.88 1009.65 1010.48 1011.37 1012.29 1013.22 1014.14 1015.01 1015.80 1016.49 1017.05 1017.47 1017.76 1017.91 1017.96 1017.92 1017.82 1017.68 1017.54 1017.40
1005.77 1005.46 1005.18 1004.90 1004.58 1004.23 1003.86 1003.48 1003.12 1002.82 1002.59 1002.45 1002.44 1002.53 1002.74 1003.03 1003.39 1003.81 1004.27 1004.76 1005.27 1005.82 1006.41 1007.05 1007.75 1008.53 1009.38 1010.30 1011.27 1012.26 1013.25 1014.19 1015.05 1015.80 1016.42 1016.89 1017.22 1017.40 1017.47 1017.46 1017.39 1017.28 1017.18 1017.09
1005.84 1005.62 1005.39 1005.14 1004.83 1004.48 1004.08 1003.66 1003.25 1002.87 1002.56 1002.34 1002.23 1002.23 1002.33 1002.52 1002.79 1003.12 1003.49 1003.91 1004.36 1004.85 1005.40 1006.01 1006.70 1007.48 1008.33 1009.27 1010.27 1011.29 1012.32 1013.30 1014.21 1015.00 1015.66 1016.18 1016.54 1016.77 1016.89 1016.93 1016.91 1016.87 1016.83 1016.81
1006.15 1005.99 1005.81 1005.58 1005.27 1004.89 1004.46 1003.99 1003.51 1003.06 1002.67 1002.36 1002.15 1002.04 1002.03 1002.12 1002.29 1002.52 1002.80 1003.14 1003.52 1003.96 1004.46 1005.04 1005.71 1006.47 1007.33 1008.27 1009.27 1010.31 1011.35 1012.35 1013.27 1014.09 1014.78 1015.33 1015.74 1016.02 1016.21 1016.32 1016.38 1016.43 1016.47 1016.53
1006.55 1006.44 1006.28 1006.05 1005.72 1005.31 1004.82 1004.29 1003.75 1003.23 1002.76 1002.37 1002.07 1001.87 1001.76 1001.75 1001.81 1001.95 1002.15 1002.40 1002.72 1003.10 1003.57 1004.12 1004.77 1005.51 1006.36 1007.30 1008.29 1009.32 1010.35 1011.34 1012.27 1013.09 1013.80 1014.38 1014.84 1015.19 1015.45 1015.65 1015.81 1015.96 1016.11 1016.26
1006.90 1006.82 1006.65 1006.39 1006.02 1005.56 1005.02 1004.44 1003.85 1003.27 1002.74 1002.28 1001.91 1001.62 1001.43 1001.33 1001.31 1001.36 1001.47 1001.66 1001.92 1002.26 1002.69 1003.21 1003.85 1004.59 1005.42 1006.35 1007.33 1008.34 1009.35 1010.33 1011.24 1012.06 1012.78 1013.38 1013.89 1014.30 1014.65 1014.95 1015.22 1015.48 1015.73 1015.97
1007.10 1007.00 1006.79 1006.48 1006.06 1005.54 1004.95 1004.33 1003.69 1003.08 1002.51 1002.01 1001.59 1001.25 1001.00 1000.83 1000.73 1000.71 1000.76 1000.89 1001.11 1001.41 1001.82 1002.33 1002.96 1003.69 1004.52 1005.43 1006.40 1007.39 1008.38 1009.33 1010.22 1011.04 1011.76 1012.39 1012.94 1013.42 1013.85 1014.25 1014.63 1014.99 1015.34 1015.67
1007.07 1006.90 1006.63 1006.24 1005.75 1005.18 1004.55 1003.90 1003.25 1002.63 1002.05 1001.54 1001.10 1000.74 1000.45 1000.24 1000.10 1000.03 1000.03 1000.12 1000.31 1000.59 1000.98 1001.48 1002.11 1002.83 1003.66 1004.56 1005.52 1006.49 1007.45 1008.38 1009.25 1010.06 1010.78 1011.44 1012.03 1012.57 1013.08 1013.57 1014.04 1014.50 1014.94 1015.34
1006.77 1006.50 1006.12 1005.65 1005.09 1004.47 1003.82 1003.17 1002.52 1001.92 1001.37 1000.88 1000.46 1000.11 999.82 999.59 999.43 999.34 999.32 999.38 999.54 999.81 1000.19 1000.69 1001.31 1002.04 1002.86 1003.75 1004.69 1005.64 1006.58 1007.49 1008.34 1009.14 1009.87 1010.55 1011.18 1011.78 1012.35 1012.92 1013.48 1014.02 1014.52 1014.97
1006.17 1005.78 1005.29 1004.72 1004.11 1003.46 1002.81 1002.17 1001.58 1001.03 1000.54 1000.11 999.74 999.42 999.16 998.95 998.79 998.69 998.66 998.71 998.86 999.12 999.49 999.99 1000.60 1001.32 1002.13 1003.01 1003.93 1004.86 1005.77 1006.66 1007.50 1008.29 1009.03 1009.72 1010.39 1011.03 1011.67 1012.30 1012.92 1013.52 1014.08 1014.57
1005.29 1004.76 1004.17 1003.53 1002.87 1002.21 1001.59 1001.00 1000.48 1000.01 999.61 999.27 998.98 998.73 998.52 998.35 998.21 998.12 998.10 998.15 998.29 998.54 998.91 999.39 1000.00 1000.70 1001.49 1002.35 1003.24 1004.14 1005.03 1005.90 1006.72 1007.50 1008.25 1008.96 1009.66 1010.34 1011.03 1011.71 1012.38 1013.02 1013.61 1014.12
1004.17 1003.52 1002.84 1002.15 1001.47 1000.83 1000.26 999.75 999.32 998.96 998.66 998.42 998.23 998.06 997.92 997.80 997.71 997.65 997.64 997.70 997.84 998.09 998.45 998.92 999.51 1000.19 1000.95 1001.78 1002.64 1003.51 1004.37 1005.20 1006.01 1006.78 1007.53 1008.25 1008.97 1009.69 1010.41 1011.13 1011.83 1012.51 1013.12 1013.65
Thickness
5661 5666 5662 5659 5658 5651 5643 5646 5641 5653 5661 5672 5674 5669 5664 5657 5644 5629 5613 5597 5581 5564 5546 5528 5510 5493 5476 5459 5441 5424 5406 5388 5373 5358 5344 5329 5315 5302 5289 5277 5266 5256 5246 5236
5651 5661 5655 5650 5656 5653 5649 5647 5649 5652 5657 5675 5673 5668 5660 5652 5641 5627 5614 5599 5582 5565 5548 5531 5513 5495 5477 5459 5441 5423 5405 5388 5373 5358 5343 5329 5315 5302 5290 5278 5268 5258 5248 5238
5634 5647 5642 5645 5668 5659 5655 5659 5654 5647 5659 5671 5668 5661 5654 5648 5640 5628 5616 5601 5584 5568 5551 5534 5516 5498 5478 5459 5441 5422 5404 5388 5372 5357 5343 5329 5316 5303 5291 5280 5270 5260 5250 5241
5620 5632 5624 5672 5683 5679 5664 5665 5661 5661 5665 5666 5663 5661 5655 5648 5640 5630 5618 5603 5587 5570 5552 5535 5517 5497 5477 5458 5439 5421 5404 5388 5373 5358 5344 5331 5318 5305 5293 5282 5272 5262 5253 5244
5608 5611 5634 5671 5670 5667 5655 5656 5668 5662 5663 5662 5659 5647 5649 5649 5642 5632 5619 5604 5588 5571 5553 5534 5515 5495 5475 5456 5438 5420 5405 5390 5376 5361 5347 5333 5319 5307 5295 5284 5273 5264 5255 5247
5599 5595 5612 5662 5662 5662 5654 5646 5671 5665 5660 5657 5645 5630 5646 5650 5640 5628 5616 5601 5585 5568 5550 5531 5512 5493 5473 5455 5438 5423 5409 5394 5379 5364 5349 5335 5322 5309 5297 5286 5275 5266 5257 5249
5590 5590 5617 5658 5647 5644 5636 5649 5675 5667 5659 5651 5637 5639 5643 5637 5629 5619 5608 5594 5580 5564 5548 5530 5511 5492 5473 5457 5443 5429 5413 5397 5382 5367 5352 5338 5325 5312 5299 5288 5278 5268 5259 5250
5592 5588 5615 5646 5635 5635 5651 5667 5667 5661 5655 5648 5643 5642 5634 5625 5616 5607 5597 5586 5573 5558 5543 5526 5510 5492 5475 5461 5448 5432 5416 5399 5384 5368 5354 5341 5327 5314 5302 5290 5278 5268 5259 5251
5614 5629 5654 5646 5647 5652 5655 5653 5655 5652 5649 5643 5637 5634 5627 5617 5608 5599 5589 5578 5567 5553 5537 5522 5508 5493 5478 5465 5449 5433 5416 5400 5385 5370 5357 5343 5329 5316 5303 5291 5279 5270 5260 5252
5623 5639 5648 5645 5644 5647 5646 5645 5649 5646 5642 5636 5630 5628 5622 5614 5604 5594 5584 5573 5561 5547 5533 5519 5507 5494 5481 5466 5450 5433 5417 5401 5386 5372 5358 5345 5332 5319 5305 5293 5280 5270 5261 5253
5618 5634 5637 5644 5645 5646 5646 5646 5644 5643 5639 5632 5626 5623 5619 5612 5603 5594 5582 5570 5557 5546 5535 5521 5507 5494 5481 5466 5450 5433 5417 5402 5388 5375 5360 5347 5334 5321 5308 5296 5284 5273 5263 5254
5623 5636 5624 5634 5645 5643 5638 5639 5638 5635 5634 5632 5624 5621 5616 5609 5601 5590 5579 5567 5554 5543 5533 5521 5507 5494 5481 5467 5451 5434 5419 5404 5390 5376 5362 5348 5334 5322 5311 5300 5290 5279 5269 5259
5629 5632 5624 5628 5635 5636 5632 5634 5635 5631 5629 5627 5624 5616 5609 5603 5594 5584 5574 5563 5554 5544 5534 5521 5508 5495 5482 5468 5452 5436 5422 5407 5393 5379 5364 5350 5336 5322 5310 5300 5291 5281 5271 5262
5619 5614 5609 5615 5620 5627 5626 5626 5625 5623 5622 5617 5613 5606 5598 5591 5584 5576 5571 5564 5553 5541 5529 5519 5508 5496 5483 5468 5453 5438 5423 5409 5395 5380 5365 5351 5338 5324 5311 5299 5289 5279 5271 5263
5605 5602 5602 5609 5614 5618 5618 5614 5610 5610 5608 5604 5598 5591 5585 5580 5577 5573 5566 5555 5544 5534 5525 5516 5507 5496 5482 5468 5453 5438 5423 5409 5396 5381 5367 5353 5339 5326 5313 5301 5290 5280 5271 5262
5592 5592 5593 5595 5600 5605 5605 5601 5596 5598 5596 5591 5586 5582 5577 5574 5571 5565 5557 5548 5539 5533 5525 5516 5507 5497 5482 5467 5453 5438 5424 5412 5397 5382 5368 5354 5341 5328 5315 5303 5291 5281 5271 5263
5574 5576 5578 5580 5585 5587 5586 5583 5580 5581 5580 5577 5575 5573 5567 5562 5558 5554 5549 5544 5538 5532 5523 5515 5505 5493 5481 5467 5452 5439 5424 5411 5399 5384 5369 5356 5342 5329 5316 5304 5292 5282 5273 5265
5566 5565 5565 5563 5564 5565 5565 5564 5562 5561 5561 5563 5562 5560 5556 5552 5551 5548 5541 5533 5526 5521 5517 5510 5499 5488 5477 5464 5451 5438 5425 5411 5399 5384 5370 5357 5344 5331 5318 5306 5294 5284 5274 5266
5552 5550 5548 5547 5545 5544 5544 5544 5545 5546 5548 5548 5547 5546 5546 5545 5542 5538 5530 5523 5519 5516 5512 5502 5494 5483 5472 5461 5448 5436 5424 5411 5398 5385 5372 5360 5347 5333 5320 5308 5297 5286 5276 5267
5534 5533 5531 5530 5528 5527 5527 5530 5533 5535 5536 5533 5532 5533 5533 5532 5529 5526 5521 5519 5519 5514 5504 5494 5487 5478 5468 5457 5447 5435 5423 5411 5398 5385 5373 5360 5348 5335 5323 5311 5299 5288 5278 5268
5517 5516 5515 5516 5517 5518 5519 5519 5519 5520 5519 5517 5516 5518 5520 5520 5516 5513 5511 5513 5511 5501 5495 5488 5480 5472 5463 5454 5445 5434 5423 5411 5399 5386 5374 5362 5349 5337 5325 5313 5302 5291 5280 5270
5506 5506 5506 5504 5504 5505 5504 5501 5501 5501 5502 5502 5503 5503 5504 5504 5503 5502 5503 5505 5502 5495 5488 5482 5476 5468 5458 5451 5442 5432 5422 5411 5399 5387 5375 5363 5351 5339 5327 5315 5303 5293 5282 5271
5495 5494 5492 5490 5488 5487 5487 5486 5485 5485 5486 5487 5487 5488 5488 5490 5490 5489 5492 5491 5488 5487 5482 5477 5471 5463 5455 5447 5439 5431 5421 5411 5400 5389 5377 5365 5353 5341 5329 5318 5306 5294 5283 5272
5481 5478 5475 5473 5470 5468 5471 5474 5472 5472 5472 5471 5472 5472 5472 5474 5477 5480 5481 5482 5480 5478 5474 5470 5465 5459 5451 5443 5436 5428 5420 5410 5400 5389 5377 5366 5354 5342 5330 5319 5307 5296 5285 5275
5466 5464 5462 5459 5457 5459 5460 5461 5460 5459 5458 5459 5459 5459 5459 5459 5462 5466 5466 5468 5470 5469 5465 5462 5458 5453 5446 5439 5432 5426 5418 5410 5400 5389 5378 5366 5355 5343 5332 5320 5309 5298 5287 5277
5455 5455 5455 5453 5451 5450 5449 5447 5447 5447 5445 5446 5448 5447 5446 5447 5449 5450 5452 5455 5457 5459 5456 5453 5451 5447 5441 5434 5428 5422 5415 5408 5398 5388 5377 5367 5356 5344 5333 5322 5311 5300 5289 5279
5448 5448 5447 5447 5446 5442 5440 5438 5437 5437 5436 5434 5437 5437 5435 5435 5436 5437 5440 5442 5445 5447 5446 5444 5443 5441 5437 5430 5423 5418 5411 5405 5397 5388 5377 5367 5356 5346 5335 5324 5313 5302 5292 5281